Regional Weather Roundup
Issued by NWS

Home | Current Version | Previous Version | Text Only | Print | Product List | Glossary Off
Versions: 1 2 3 4 5 6 7 8 9 10 11 12 13 14 15 16 17 18 19 20 21 22 23 24 25 26 27 28 29 30 31 32 33 34 35 36 37 38 39 40 41 42 43 44 45 46 47 48 49 50

000
ASUS43 KTOP 211159
RWRKS

WEATHER ROUNDUP FOR KANSAS
NATIONAL WEATHER SERVICE GOODLAND KS
700 AM CDT MON MAY 21 2018

NOTE:  "FAIR" INDICATES FEW OR NO CLOUDS BELOW 12,000 FEET WITH NO
SIGNIFICANT WEATHER AND/OR OBSTRUCTIONS TO VISIBILITY.

KSZ001>006-013>018-027>032-041>047-211300-
NORTHWEST KANSAS

CITY           SKY/WX    TMP DP  RH WIND       PRES   REMARKS
GOODLAND       FOG       48  48 100 S14       30.07F VSB 1/4
6HR MIN TEMP:  47; 6HR MAX TEMP:  49;

HAYS           CLOUDY    53  52  96 N5        30.10F
HILL CITY      FOG       50  50 100 S5        30.11S VSB 1/4
6HR MIN TEMP:  47; 6HR MAX TEMP:  51;

RUSSELL        CLOUDY    55  54  96 N5        30.09S
6HR MIN TEMP:  53; 6HR MAX TEMP:  55;

$$

KSZ061>065-074>080-084>089-211300-
SOUTHWEST KANSAS

CITY           SKY/WX    TMP DP  RH WIND       PRES   REMARKS
DODGE CITY     FOG       52  51  97 SE7       30.10S VSB 1/4
6HR MIN TEMP:  48; 6HR MAX TEMP:  52;

GARDEN CITY    MOCLDY    48  48 100 SE6       30.09S FOG
6HR MIN TEMP:  48; 6HR MAX TEMP:  52;

GREAT BEND     FOG       51  50  96 CALM      30.11S VSB<1/4
LIBERAL        CLOUDY    52  51  97 SE8       30.10R
$$

KSZ066>073-081>083-090>101-211300-
SOUTHEAST KANSAS

CITY           SKY/WX    TMP DP  RH WIND       PRES   REMARKS
CHANUTE        CLOUDY    60  58  92 NW7       30.07S
6HR MIN TEMP:  58; 6HR MAX TEMP:  62;

COFFEYVILLE    FOG       58  58 100 CALM      30.06R VSB 1
6HR MIN TEMP:  57; 6HR MAX TEMP:  63;

HUTCHINSON     CLOUDY    55  55 100 N5        30.09S FOG
6HR MIN TEMP:  55; 6HR MAX TEMP:  57;

MEDICINE LODGE   N/A     53  53 100 CALM        N/A
NEWTON         CLOUDY    55  53  93 N5        30.10R
PARSONS        CLEAR     58  58 100 N5        30.07S FOG
6HR MIN TEMP:  56; 6HR MAX TEMP:  62;

WICHITA INTL   MOCLDY    58  56  93 NW9       30.09R
6HR MIN TEMP:  58; 6HR MAX TEMP:  61;

WICHITA JABRA  CLOUDY    57  56  96 NW7       30.08S
6HR MIN TEMP:  57; 6HR MAX TEMP:  59;

WICHITA MCCONL CLEAR     57  55  95 N6        30.08S
WINFIELD       FOG       54  54 100 CALM      30.10R VSB<1/4
6HR MIN TEMP:  52; 6HR MAX TEMP:  57;

$$

KSZ007>012-019>026-033>040-048>060-102>105-211300-
NORTHEAST KANSAS

CITY           SKY/WX    TMP DP  RH WIND       PRES   REMARKS
CONCORDIA      CLOUDY    55  51  86 NW6       30.09R
6HR MIN TEMP:  53; 6HR MAX TEMP:  55;

EMPORIA        CLOUDY    57  54  89 W6        30.09R
6HR MIN TEMP:  56; 6HR MAX TEMP:  58;

LAWRENCE       CLOUDY    60  58  92 W9        30.07R
6HR MIN TEMP:  59; 6HR MAX TEMP:  62;

MANHATTAN      CLOUDY    56  53  90 NW5       30.09S
6HR MIN TEMP:  56; 6HR MAX TEMP:  59;

OLATHE IND     CLOUDY    61  60  97 W5        30.06R FOG
6HR MIN TEMP:  60; 6HR MAX TEMP:  62;

OLATHE EXE     CLOUDY    60  60 100 W5        30.05R FOG
6HR MIN TEMP:  59; 6HR MAX TEMP:  62;

SALINA         CLOUDY    57  53  86 N6        30.11R
6HR MIN TEMP:  57; 6HR MAX TEMP:  59;

TOPEKA BILLARD CLOUDY    58  57  97 W7        30.07R
6HR MIN TEMP:  58; 6HR MAX TEMP:  62;

TOPEKA FORBES  CLOUDY    58  56  93 W9        30.07R
6HR MIN TEMP:  58; 6HR MAX TEMP:  64;

$$




USA.gov is the U.S. government's official web portal to all federal, state and local government web resources and services.